TimeMST,TemperatureF,Dew PointF,Humidity,Sea Level PressureIn,VisibilityMPH,Wind Direction,Wind SpeedMPH,Gust SpeedMPH,PrecipitationIn,Events,Conditions,WindDirDegrees,DateUTC
12:53 AM,33.1,26.1,75,29.60,10.0,WSW,9.2,-,N/A,,Mostly Cloudy,250,2013-01-08 07:53:00
1:53 AM,32.0,25.0,75,29.62,10.0,SW,6.9,-,N/A,,Clear,230,2013-01-08 08:53:00
2:53 AM,32.0,25.0,75,29.65,10.0,SW,6.9,-,N/A,,Partly Cloudy,230,2013-01-08 09:53:00
3:53 AM,34.0,25.0,70,29.66,10.0,WNW,9.2,-,N/A,,Mostly Cloudy,300,2013-01-08 10:53:00
4:53 AM,35.1,26.1,70,29.69,10.0,WNW,9.2,-,N/A,,Overcast,300,2013-01-08 11:53:00
5:53 AM,35.1,27.0,72,29.71,10.0,NW,12.7,-,0.00,,Overcast,320,2013-01-08 12:53:00
6:53 AM,34.0,26.1,73,29.73,10.0,WNW,13.8,-,N/A,,Overcast,290,2013-01-08 13:53:00
7:53 AM,35.1,27.0,72,29.77,10.0,WNW,12.7,-,0.00,,Overcast,290,2013-01-08 14:53:00
8:53 AM,33.1,26.1,75,29.82,10.0,WNW,8.1,-,0.00,,Mostly Cloudy,290,2013-01-08 15:53:00
9:15 AM,33.8,26.6,75,29.80,1.8,NNW,21.9,27.6,0.00,Snow,Light Snow,330,2013-01-08 16:15:00
9:18 AM,33.8,28.4,81,29.79,1.0,NNW,18.4,27.6,0.00,Snow,Light Snow,330,2013-01-08 16:18:00
9:32 AM,32.0,28.4,87,29.81,2.0,NNW,19.6,31.1,0.01,Snow,Light Snow,330,2013-01-08 16:32:00
9:35 AM,32.0,28.4,87,29.81,3.0,NNW,25.3,36.8,0.01,Snow,Light Snow,330,2013-01-08 16:35:00
9:46 AM,32.0,28.4,87,29.82,1.8,NNW,21.9,34.5,0.01,Snow,Light Snow,330,2013-01-08 16:46:00
9:51 AM,32.0,28.4,87,29.82,0.8,NW,25.3,33.4,0.01,Snow,Light Snow,320,2013-01-08 16:51:00
9:53 AM,32.0,28.9,88,29.89,0.8,NW,21.9,33.4,0.01,Snow,Light Snow,320,2013-01-08 16:53:00
10:05 AM,32.0,28.4,87,29.82,1.5,NW,18.4,-,0.00,Snow,Light Snow,310,2013-01-08 17:05:00
10:09 AM,32.0,28.4,87,29.82,3.0,WNW,15.0,26.5,0.00,Snow,Light Snow,290,2013-01-08 17:09:00
10:24 AM,30.2,28.4,93,29.83,10.0,WNW,17.3,-,0.00,,Overcast,300,2013-01-08 17:24:00
10:53 AM,32.0,27.0,82,29.91,10.0,WNW,13.8,-,0.00,,Overcast,290,2013-01-08 17:53:00
11:53 AM,30.9,26.1,82,29.92,10.0,SW,3.5,-,N/A,,Mostly Cloudy,220,2013-01-08 18:53:00
12:53 PM,33.1,21.0,61,29.93,10.0,West,10.4,-,N/A,,Mostly Cloudy,270,2013-01-08 19:53:00
1:53 PM,34.0,21.9,61,29.95,10.0,West,13.8,-,N/A,,Clear,280,2013-01-08 20:53:00
2:53 PM,35.1,23.0,61,29.98,10.0,West,19.6,-,N/A,,Clear,280,2013-01-08 21:53:00
3:53 PM,35.1,21.9,59,29.98,10.0,West,16.1,-,N/A,,Clear,280,2013-01-08 22:53:00
4:53 PM,28.9,18.0,64,30.00,10.0,NW,6.9,-,N/A,,Clear,320,2013-01-08 23:53:00
5:53 PM,25.0,16.0,69,30.01,10.0,West,6.9,-,N/A,,Clear,270,2013-01-09 00:53:00
6:53 PM,21.9,15.1,75,30.03,10.0,Calm,Calm,-,N/A,,Overcast,0,2013-01-09 01:53:00
7:53 PM,21.9,15.1,75,30.00,10.0,ENE,4.6,-,N/A,,Scattered Clouds,70,2013-01-09 02:53:00
8:53 PM,21.9,17.1,82,29.99,10.0,ESE,4.6,-,N/A,,Overcast,120,2013-01-09 03:53:00
9:53 PM,21.2,17.6,86,29.87,10.0,East,5.8,-,N/A,,Scattered Clouds,90,2013-01-09 04:53:00
10:53 PM,21.9,17.1,82,29.96,10.0,ENE,4.6,-,N/A,,Mostly Cloudy,60,2013-01-09 05:53:00
11:53 PM,23.0,16.0,74,29.94,10.0,East,10.4,-,N/A,,Overcast,100,2013-01-09 06:53:00